Date String (YYYY-MM-DD hh:mm:ss) UTC,Instrument flags,absolute air pressure of the measurement (hPa),sample flow rate (lpm),inlet stack bypass flow (lpm),air temperature of the measurement (°C),ambient temperature measured by the external sensor (°C),aerosol sample conditioner tube jacket temperature (°C),OPC LED temperature (°C),internal box temperature (°C),relative humidity of the measurement (%),span deviation,mass concentration of particles derived from Lorenz-Mie calculation of OPC scattering (μg/m³),mass concentration of particles derived from Lorenz-Mie calculation of OPC scattering (μg/m³),mass concentration of particles derived from Lorenz-Mie calculation of OPC scattering (μg/m³)
DateTimeUTC,F1_M11,P_M11,Q1_M11,Q2_M11,T1_M11,T2_M11,T3_M11,T4_M11,T5_M11,U1_M11,ZSPAN_M11,X0_M11,X2_M11,X1_M11
2024-03-27 08:00:00,SystemResetWarning,0823.5,5.01,000.00,018.4,017.5,000.0,027.1,020.1,16.2,0000.0,0009.67,0005.61,0005.19
2024-03-27 08:01:00,SystemResetWarning,0823.5,5.01,000.00,018.4,017.5,000.0,027.1,020.0,16.1,0000.0,0009.91,0005.60,0005.16
2024-03-27 08:02:00,SystemResetWarning,0823.5,5.00,000.00,018.3,017.4,000.0,027.1,020.0,16.3,0000.0,0010.01,0005.61,0005.16
2024-03-27 08:03:00,SystemResetWarning,0823.5,5.00,000.00,018.3,017.4,000.0,027.1,020.0,16.6,0000.0,0010.56,0005.76,0005.29
2024-03-27 08:04:00,SystemResetWarning,0823.5,5.00,000.00,018.3,017.4,000.0,027.0,020.0,16.5,0000.0,0010.72,0005.86,0005.38
2024-03-27 08:05:00,SystemResetWarning,0823.5,5.00,000.00,018.3,017.4,000.0,027.0,020.0,16.4,0000.0,0010.75,0005.88,0005.39
2024-03-27 08:06:00,SystemResetWarning,0823.5,4.99,000.00,018.3,017.4,000.0,027.0,020.0,16.4,0000.0,0010.85,0005.87,0005.38
2024-03-27 08:07:00,SystemResetWarning,0823.5,5.00,000.00,018.3,017.4,000.0,027.0,020.0,16.4,0000.0,0010.98,0005.88,0005.38
2024-03-27 08:08:00,SystemResetWarning,0823.5,5.00,000.00,018.3,017.4,000.0,027.0,020.0,16.2,0000.0,0010.56,0005.86,0005.37
2024-03-27 08:09:00,SystemResetWarning,0823.6,4.99,000.00,018.3,017.4,000.0,027.0,020.0,16.0,0000.6,0010.08,0005.80,0005.32
2024-03-27 08:10:00,SystemResetWarning,0823.6,5.00,000.00,018.3,017.4,000.0,027.0,020.0,15.9,0000.7,0009.98,0005.73,0005.23
2024-03-27 08:11:00,SystemResetWarning,0823.6,5.00,000.00,018.2,017.4,000.0,027.0,020.0,15.8,0000.0,0009.90,0005.67,0005.17
2024-03-27 08:12:00,SystemResetWarning,0823.6,5.00,000.00,018.2,017.4,000.0,027.0,020.0,15.8,0000.0,0009.60,0005.62,0005.13
2024-03-27 08:13:00,SystemResetWarning,0823.7,5.00,000.00,018.2,017.4,000.0,027.0,020.0,16.0,0000.7,0009.25,0005.60,0005.10
2024-03-27 08:14:00,SystemResetWarning,0823.7,5.01,000.00,018.2,017.4,000.0,027.0,020.0,15.9,0001.7,0008.73,0005.54,0005.03
2024-03-27 08:15:00,SystemResetWarning,0823.7,5.01,000.00,018.2,017.4,000.0,027.0,020.0,15.8,0002.3,0008.48,0005.39,0004.92
2024-03-27 08:16:00,SystemResetWarning,0823.7,4.99,000.00,018.2,017.5,000.0,027.0,020.0,15.9,0002.0,0008.39,0005.28,0004.81
2024-03-27 08:17:00,SystemResetWarning,0823.7,5.00,000.00,018.3,018.1,000.0,027.1,020.4,15.8,0001.3,0008.30,0005.22,0004.72
2024-03-27 08:18:00,SystemResetWarning,0823.8,5.01,000.00,018.6,018.9,000.0,027.2,020.9,15.7,0001.5,0008.07,0005.15,0004.66
2024-03-27 08:19:00,SystemResetWarning,0823.7,5.00,000.00,018.7,018.9,000.0,027.1,020.9,15.7,0002.0,0008.03,0005.11,0004.60
2024-03-27 08:20:00,SystemResetWarning,0823.7,4.99,000.00,018.7,018.7,000.0,027.1,020.7,15.8,0002.4,0008.06,0005.15,0004.62
2024-03-27 08:21:00,SystemResetWarning,0823.7,5.00,000.00,018.7,018.5,000.0,027.1,020.6,15.9,0002.1,0008.20,0005.21,0004.70
2024-03-27 08:22:00,SystemResetWarning,0823.7,5.00,000.00,018.7,018.3,000.0,027.1,020.5,16.0,0001.9,0008.55,0005.34,0004.82
2024-03-27 08:23:00,SystemResetWarning,0823.7,5.00,000.00,018.6,018.2,000.0,027.1,020.4,16.1,0001.9,0008.83,0005.49,0004.94
2024-03-27 08:24:00,SystemResetWarning,0823.7,5.00,000.00,018.6,018.1,000.0,027.1,020.3,16.2,0002.2,0009.11,0005.56,0005.04
2024-03-27 08:25:00,SystemResetWarning,0823.7,5.00,000.00,018.6,018.0,000.0,027.1,020.3,16.3,0001.9,0009.28,0005.65,0005.11
2024-03-27 08:26:00,SystemResetWarning,0823.7,5.00,000.00,018.5,017.9,000.0,027.1,020.2,16.5,0001.0,0009.49,0005.84,0005.30
2024-03-27 08:27:00,SystemResetWarning,0823.7,5.00,000.00,018.5,017.8,000.0,027.1,020.2,16.5,0000.7,0009.59,0005.98,0005.45
2024-03-27 08:28:00,SystemResetWarning,0823.7,5.01,000.00,018.5,017.8,000.0,027.1,020.2,16.3,0000.8,0009.55,0006.02,0005.53
2024-03-27 08:29:00,SystemResetWarning,0823.7,5.00,000.00,018.4,017.7,000.0,027.1,020.2,16.4,0001.0,0009.85,0006.09,0005.63
2024-03-27 08:30:00,SystemResetWarning,0823.7,5.00,000.00,018.4,017.6,000.0,027.1,020.1,16.4,0000.7,0010.11,0006.19,0005.74
2024-03-27 08:31:00,SystemResetWarning,0823.7,5.00,000.00,018.4,017.6,000.0,027.0,020.1,16.5,0000.4,0010.40,0006.29,0005.83
2024-03-27 08:32:00,SystemResetWarning,0823.7,5.00,000.00,018.4,017.6,000.0,027.0,020.1,16.5,0001.0,0010.41,0006.34,0005.89
2024-03-27 08:33:00,SystemResetWarning,0823.7,5.00,000.00,018.4,017.6,000.0,027.0,020.1,16.5,0001.7,0010.31,0006.40,0005.92
2024-03-27 08:34:00,SystemResetWarning,0823.7,5.00,000.00,018.4,017.6,000.0,027.0,020.1,16.5,0002.3,0010.28,0006.38,0005.92
2024-03-27 08:35:00,SystemResetWarning,0823.7,5.00,000.00,018.4,017.6,000.0,027.0,020.1,16.5,0002.4,0010.25,0006.37,0005.92
2024-03-27 08:36:00,SystemResetWarning,0823.7,4.99,000.00,018.3,017.6,000.0,027.0,020.1,16.5,0002.9,0010.01,0006.32,0005.89
2024-03-27 08:37:00,SystemResetWarning,0823.7,5.00,000.00,018.3,017.6,000.0,027.0,020.1,16.6,0003.6,0009.90,0006.23,0005.81
2024-03-27 08:38:00,SystemResetWarning,0823.7,5.00,000.00,018.3,017.6,000.0,027.0,020.1,16.6,0003.5,0009.82,0006.16,0005.74
2024-03-27 08:39:00,SystemResetWarning,0823.7,5.00,000.00,018.3,017.6,000.0,027.0,020.0,16.5,0003.3,0009.82,0006.16,0005.72
2024-03-27 08:40:00,SystemResetWarning,0823.7,5.00,000.00,018.3,017.5,000.0,027.0,020.0,16.6,0003.3,0009.51,0006.12,0005.70
2024-03-27 08:41:00,SystemResetWarning,0823.7,5.00,000.00,018.3,017.5,000.0,027.0,020.0,16.5,0003.1,0009.29,0006.06,0005.65
2024-03-27 08:42:00,SystemResetWarning,0823.7,5.00,000.00,018.3,017.5,000.0,026.9,020.0,16.5,0002.8,0008.93,0005.96,0005.59
2024-03-27 08:43:00,SystemResetWarning,0823.7,4.99,000.00,018.3,017.5,000.0,026.9,020.0,16.5,0003.0,0008.85,0005.87,0005.51
2024-03-27 08:44:00,SystemResetWarning,0823.7,5.00,000.00,018.3,017.5,000.0,026.9,020.0,16.5,0003.0,0008.74,0005.75,0005.41
2024-03-27 08:45:00,SystemResetWarning,0823.7,5.00,000.00,018.2,017.5,000.0,026.9,020.0,16.7,0002.9,0008.48,0005.68,0005.36
2024-03-27 08:46:00,SystemResetWarning,0823.7,5.00,000.00,018.2,017.5,000.0,026.9,020.0,17.0,0001.1,0008.17,0005.65,0005.35
2024-03-27 08:47:00,SystemResetWarning,0823.7,5.00,000.00,018.2,017.4,000.0,026.9,020.0,17.3,0001.2,0008.24,0005.72,0005.40
2024-03-27 08:48:00,SystemResetWarning,0823.7,5.00,000.00,018.2,017.4,000.0,026.9,020.0,17.3,0002.1,0008.47,0005.75,0005.42
2024-03-27 08:49:00,SystemResetWarning,0823.8,5.01,000.00,018.3,017.7,000.0,027.0,020.2,17.5,0002.5,0008.91,0005.82,0005.51
2024-03-27 08:50:00,SystemResetWarning,0823.8,5.01,000.00,018.5,018.6,000.0,027.1,020.7,17.3,0002.6,0009.05,0005.93,0005.60
2024-03-27 08:51:00,SystemResetWarning,0823.8,4.99,000.00,018.7,019.0,000.0,027.1,020.9,16.9,0002.4,0009.38,0006.01,0005.65
2024-03-27 08:52:00,SystemResetWarning,0823.8,4.99,000.00,018.7,018.8,000.0,027.1,020.8,16.8,0002.3,0010.24,0006.04,0005.68
2024-03-27 08:53:00,SystemResetWarning,0823.8,5.01,000.00,018.7,018.6,000.0,027.1,020.7,16.8,0002.6,0010.41,0006.12,0005.74
2024-03-27 08:54:00,SystemResetWarning,0823.8,5.00,000.00,018.7,018.5,000.0,027.1,020.6,17.1,0001.4,0010.53,0006.22,0005.83
2024-03-27 08:55:00,SystemResetWarning,0823.8,5.00,000.00,018.7,018.3,000.0,027.1,020.5,17.2,0001.7,0010.65,0006.35,0005.97
2024-03-27 08:56:00,SystemResetWarning,0823.8,5.00,000.00,018.6,018.2,000.0,027.1,020.4,17.4,0001.4,0010.75,0006.47,0006.09
2024-03-27 08:57:00,SystemResetWarning,0823.8,5.00,000.00,018.6,018.1,000.0,027.1,020.4,17.5,0001.2,0010.93,0006.59,0006.18
2024-03-27 08:58:00,SystemResetWarning,0823.8,5.00,000.00,018.6,018.0,000.0,027.1,020.3,17.5,0001.4,0011.00,0006.60,0006.21
2024-03-27 08:59:00,SystemResetWarning,0823.8,4.99,000.00,018.6,017.9,000.0,027.1,020.3,17.4,0000.8,0010.80,0006.62,0006.25
